Ada, OK

11:39 AM CST on February 13, 2016 (GMT -0600)
Ada Municipal

Weather History for KADH - January, 2014

Change the Weather History Date:

Wednesday, January 29, 2014

  Actual Average Record
Temperature  
Mean Temperature 29 °F -  
Max Temperature 44 °F - - ()
Min Temperature 14 °F - - ()
Degree Days  
Heating Degree Days 36    
Moisture  
Dew Point 11 °F    
Average Humidity 48    
Maximum Humidity 74    
Minimum Humidity 29    
Precipitation  
Precipitation 0.00 in - - ()
Sea Level Pressure  
Sea Level Pressure 30.27 in    
Wind  
Wind Speed 6 mph (South)    
Max Wind Speed 17 mph    
Max Gust Speed 22 mph    
Visibility 10 miles    
Events      
T = Trace of Precipitation, MM = Missing Value Source: NWS Daily Summary

Daily Weather History Graph

Daily Weather History Graph

Search for Another Location

Airport or City:

Trip Planner

Search our weather history database for the weather conditions in past years. The results will help you decide how hot, cold, wet, or windy it might be!

Date:

Astronomy

Jan. 29, 2014 Rise Set
Actual Time 7:27 AM CST 5:52 PM CST
Civil Twilight 7:00 AM CST 6:19 PM CST
Nautical Twilight 6:30 AM CST 6:49 PM CST
Astronomical Twilight 6:00 AM CST 7:19 PM CST
Moon 6:04 AM CST (1/29) 4:53 PM CST (1/29)
Length of Visible Light 11h 19m
Length of Day
10h 25m
Waning Crescent, 2% of the Moon is Illuminated
Jan 29
Waning Crescent
Jan 30
New
Feb 6
First Quarter
Feb 14
Full
Feb 22
Last Quarter

Hourly Weather History & Observations

Time (CST) Temp. Windchill Dew Point Humidity Pressure Visibility Wind Dir Wind Speed Gust Speed Precip Events Conditions
12:15 AM 19.4 °F - 5.0 °F 54% 30.40 in 10.0 mi Calm Calm - N/A   Clear
12:35 AM 19.4 °F - 5.0 °F 54% 30.39 in 10.0 mi Calm Calm - N/A   Clear
12:55 AM 19.4 °F - 5.0 °F 54% 30.39 in 10.0 mi Calm Calm - N/A   Clear
1:15 AM 19.4 °F - 6.8 °F 58% 30.38 in 10.0 mi Calm Calm - N/A   Clear
1:35 AM 19.4 °F - 6.8 °F 58% 30.38 in 10.0 mi Calm Calm - N/A   Clear
1:55 AM 19.4 °F 14.3 °F 6.8 °F 58% 30.38 in 10.0 mi SSW 3.5 mph - N/A   Clear
2:15 AM 17.6 °F 12.3 °F 6.8 °F 63% 30.37 in 10.0 mi South 3.5 mph - N/A   Clear
2:35 AM 19.4 °F 12.8 °F 8.6 °F 63% 30.37 in 10.0 mi South 4.6 mph - N/A   Clear
2:55 AM 19.4 °F 12.8 °F 8.6 °F 63% 30.37 in 10.0 mi South 4.6 mph - N/A   Clear
3:15 AM 17.6 °F 12.3 °F 8.6 °F 68% 30.37 in 10.0 mi SSW 3.5 mph - N/A   Clear
3:35 AM 19.4 °F 14.3 °F 6.8 °F 58% 30.36 in 10.0 mi South 3.5 mph - N/A   Clear
3:55 AM 19.4 °F 12.8 °F 6.8 °F 58% 30.36 in 10.0 mi SSW 4.6 mph - N/A   Clear
4:15 AM 21.2 °F 14.9 °F 5.0 °F 50% 30.36 in 10.0 mi SSW 4.6 mph - N/A   Clear
4:35 AM 21.2 °F 14.9 °F 5.0 °F 50% 30.35 in 10.0 mi SSW 4.6 mph - N/A   Clear
4:55 AM 19.4 °F 14.3 °F 5.0 °F 54% 30.35 in 10.0 mi South 3.5 mph - N/A   Clear
5:15 AM 19.4 °F 12.8 °F 5.0 °F 54% 30.35 in 10.0 mi South 4.6 mph - N/A   Clear
5:35 AM 17.6 °F 12.3 °F 5.0 °F 58% 30.34 in 10.0 mi South 3.5 mph - N/A   Clear
5:55 AM 17.6 °F 12.3 °F 5.0 °F 58% 30.34 in 10.0 mi South 3.5 mph - N/A   Clear
6:15 AM 17.6 °F 10.7 °F 6.8 °F 63% 30.34 in 10.0 mi South 4.6 mph - N/A   Clear
6:35 AM 17.6 °F 9.3 °F 6.8 °F 63% 30.35 in 10.0 mi South 5.8 mph - N/A   Clear
6:55 AM 17.6 °F 10.7 °F 6.8 °F 63% 30.35 in 10.0 mi South 4.6 mph - N/A   Clear
7:15 AM 15.8 °F 7.2 °F 6.8 °F 68% 30.36 in 10.0 mi South 5.8 mph - N/A   Clear
7:35 AM 14.0 °F 6.5 °F 6.8 °F 73% 30.36 in 10.0 mi SSE 4.6 mph - N/A   Clear
7:55 AM 17.6 °F 12.3 °F 6.8 °F 63% 30.36 in 10.0 mi South 3.5 mph - N/A   Clear
8:15 AM 19.4 °F 12.8 °F 12.2 °F 74% 30.36 in 10.0 mi South 4.6 mph - N/A   Clear
8:35 AM 23.0 °F 17.0 °F 12.2 °F 63% 30.36 in 10.0 mi South 4.6 mph - N/A   Clear
8:55 AM 24.8 °F 19.1 °F 14.0 °F 64% 30.36 in 10.0 mi South 4.6 mph - N/A   Clear
9:15 AM 26.6 °F 20.0 °F 14.0 °F 59% 30.36 in 10.0 mi South 5.8 mph - N/A   Clear
9:35 AM 30.2 °F 21.3 °F 17.6 °F 60% 30.36 in 10.0 mi SW 10.4 mph 16.1 mph N/A   Clear
9:55 AM 32.0 °F 23.6 °F 15.8 °F 51% 30.36 in 10.0 mi SW 10.4 mph - N/A   Clear
10:15 AM 32.0 °F 23.0 °F 15.8 °F 51% 30.37 in 10.0 mi SSW 11.5 mph - N/A   Clear
10:35 AM 33.8 °F 24.8 °F 17.6 °F 52% 30.37 in 10.0 mi SW 12.7 mph - N/A   Clear
10:55 AM 35.6 °F 26.2 °F 14.0 °F 41% 30.37 in 10.0 mi SSW 15.0 mph - N/A   Clear
11:15 AM 37.4 °F 28.9 °F 14.0 °F 38% 30.36 in 10.0 mi WSW 13.8 mph 19.6 mph N/A   Clear
11:35 AM 37.4 °F 28.9 °F 14.0 °F 38% 30.35 in 10.0 mi WSW 13.8 mph 20.7 mph N/A   Clear
11:55 AM 39.2 °F 31.6 °F 14.0 °F 36% 30.34 in 10.0 mi SW 12.7 mph 20.7 mph N/A   Clear
12:15 PM 41.0 °F 33.5 °F 14.0 °F 33% 30.33 in 10.0 mi SSW 13.8 mph 19.6 mph N/A   Clear
12:35 PM 41.0 °F 33.9 °F 14.0 °F 33% 30.31 in 10.0 mi SSW 12.7 mph 20.7 mph N/A   Clear
12:55 PM 42.8 °F 36.6 °F 14.0 °F 31% 30.29 in 10.0 mi SW 11.5 mph 20.7 mph N/A   Clear
1:15 PM 42.8 °F 35.4 °F 15.8 °F 34% 30.28 in 10.0 mi SSW 15.0 mph 20.7 mph N/A   Clear
1:35 PM 42.8 °F 36.6 °F 14.0 °F 31% 30.27 in 10.0 mi SSW 11.5 mph 21.9 mph N/A   Clear
1:55 PM 42.8 °F 36.2 °F 14.0 °F 31% 30.25 in 10.0 mi South 12.7 mph - N/A   Clear
2:15 PM 44.6 °F 38.4 °F 14.0 °F 29% 30.24 in 10.0 mi South 12.7 mph - N/A   Clear
2:35 PM 44.6 °F 39.2 °F 14.0 °F 29% 30.23 in 10.0 mi SSW 10.4 mph 18.4 mph N/A   Clear
2:55 PM 44.6 °F 38.4 °F 14.0 °F 29% 30.22 in 10.0 mi SSW 12.7 mph 18.4 mph N/A   Clear
3:15 PM 44.6 °F 38.1 °F 14.0 °F 29% 30.21 in 10.0 mi SSW 13.8 mph - N/A   Clear
3:35 PM 44.6 °F 38.8 °F 14.0 °F 29% 30.20 in 10.0 mi South 11.5 mph - N/A   Clear
3:55 PM 44.6 °F 38.4 °F 14.0 °F 29% 30.19 in 10.0 mi SSE 12.7 mph 16.1 mph N/A   Clear
4:15 PM 44.6 °F 38.4 °F 14.0 °F 29% 30.18 in 10.0 mi South 12.7 mph 18.4 mph N/A   Clear
4:35 PM 42.8 °F 34.8 °F 14.0 °F 31% 30.18 in 10.0 mi South 17.3 mph - N/A   Clear
4:55 PM 42.8 °F 35.4 °F 14.0 °F 31% 30.17 in 10.0 mi South 15.0 mph 19.6 mph N/A   Clear
5:15 PM 41.0 °F 33.5 °F 14.0 °F 33% 30.17 in 10.0 mi South 13.8 mph 19.6 mph N/A   Clear
5:35 PM 39.2 °F 31.6 °F 14.0 °F 36% 30.17 in 10.0 mi South 12.7 mph 21.9 mph N/A   Clear
5:55 PM 37.4 °F 29.3 °F 14.0 °F 38% 30.16 in 10.0 mi South 12.7 mph - N/A   Clear
6:15 PM 35.6 °F 27.5 °F 14.0 °F 41% 30.16 in 10.0 mi South 11.5 mph 17.3 mph N/A   Clear
6:35 PM 35.6 °F 28.0 °F 12.2 °F 38% 30.15 in 10.0 mi South 10.4 mph - N/A   Clear
6:55 PM 35.6 °F 28.6 °F 14.0 °F 41% 30.16 in 10.0 mi South 9.2 mph - N/A   Clear
7:15 PM 33.8 °F 26.4 °F 14.0 °F 44% 30.15 in 10.0 mi South 9.2 mph - N/A   Clear
7:35 PM 33.8 °F 26.4 °F 14.0 °F 44% 30.15 in 10.0 mi South 9.2 mph - N/A   Clear
7:55 PM 33.8 °F 25.3 °F 14.0 °F 44% 30.14 in 10.0 mi South 11.5 mph - N/A   Clear
8:15 PM 32.0 °F 24.8 °F 14.0 °F 48% 30.14 in 10.0 mi South 8.1 mph - N/A   Clear
8:35 PM 32.0 °F 23.6 °F 14.0 °F 48% 30.13 in 10.0 mi South 10.4 mph - N/A   Clear
8:55 PM 32.0 °F 22.5 °F 12.2 °F 44% 30.12 in 10.0 mi South 12.7 mph - N/A   Clear
9:15 PM 32.0 °F 22.5 °F 12.2 °F 44% 30.11 in 10.0 mi South 12.7 mph - N/A   Clear
9:35 PM 32.0 °F 23.0 °F 12.2 °F 44% 30.10 in 10.0 mi South 11.5 mph - N/A   Clear
9:55 PM 32.0 °F 23.6 °F 14.0 °F 48% 30.11 in 10.0 mi South 10.4 mph - N/A   Clear
10:15 PM 32.0 °F 22.5 °F 14.0 °F 48% 30.11 in 10.0 mi South 12.7 mph - N/A   Clear
10:35 PM 32.0 °F 22.5 °F 14.0 °F 48% 30.11 in 10.0 mi South 12.7 mph - N/A   Clear
10:55 PM 32.0 °F 21.6 °F 14.0 °F 48% 30.11 in 10.0 mi South 15.0 mph 19.6 mph N/A   Clear
11:15 PM 32.0 °F 21.6 °F 14.0 °F 48% 30.10 in 10.0 mi South 15.0 mph 18.4 mph N/A   Clear
11:35 PM 32.0 °F 20.8 °F 14.0 °F 48% 30.10 in 10.0 mi South 17.3 mph - N/A   Clear
11:55 PM 32.0 °F 22.1 °F 14.0 °F 48% 30.09 in 10.0 mi South 13.8 mph 19.6 mph N/A   Clear